Overview Statistics Trail Chart Weather Telemetry Raw packets
 

This is the latest recevied weather packets stored in our database for station/object OK2JV-13. If no packets are shown the sender has not sent any weather packets the latest 10 day(s).

<< 29 30 31 32 33 34 35 >>
Time Temp. Humidity Pressure Rain* Wind** Luminosity Snow
1788025329 19.44° C 54% 1014.3 hPa - - - -
1788024725 20° C 53% 1014.3 hPa - - - -
1788024122 20° C 53% 1014.3 hPa - - - -
1788023517 20.56° C 51% 1014.4 hPa - - - -
1788022913 20.56° C 50% 1014.4 hPa - - - -
1788022309 21.11° C 49% 1014.3 hPa - - - -
1788021705 21.11° C 48% 1014.5 hPa - - - -
1788021101 21.67° C 48% 1014.4 hPa - - - -
1788020497 21.67° C 46% 1014.3 hPa - - - -
1788019893 21.67° C 47% 1014.3 hPa - - - -
1788019289 21.67° C 48% 1014.4 hPa - - - -
1788018683 21.67° C 47% 1014.4 hPa - - - -
1788018078 21.67° C 47% 1014.4 hPa - - - -
1788017474 21.67° C 46% 1014.6 hPa - - - -
1788016870 21.11° C 46% 1014.5 hPa - - - -
1788015662 21.67° C 46% 1014.7 hPa - - - -
1788015060 22.22° C 44% 1014.7 hPa - - - -
1788014454 22.22° C 43% 1014.5 hPa - - - -
1788013850 22.78° C 41% 1014.8 hPa - - - -
1788013244 23.33° C 41% 1014.9 hPa - - - -
1788012642 23.33° C 41% 1014.8 hPa - - - -
1788012038 22.78° C 44% 1014.5 hPa - - - -
1788011432 22.78° C 43% 1014.8 hPa - - - -
1788010827 22.78° C 43% 1014.7 hPa - - - -
1788010223 21.67° C 50% 1014.7 hPa - - - -

* Rain since midnight (hover to see other rain measurements)
** Current wind speed in m/s (hover to see current wind gust speed)